Simultaneous Nadir Overpasses (SNOs) Predictions

Prediction of SNOs between GOES-15 and METOP-B Satellite Orbit:

Table of predicted SNOs for the next 14.0 days since TLE Epoch: 3/26/2022
Index Date Time (GOES-15) GOES-15 Lat,Lon METOP-B Lat,Lon Distance(km) Time Diff (sec)
1 03/27/2022 06:13:17 0.05,-128.29 -0.55,-131.05 313.92 80
2 03/28/2022 05:55:18 0.04,-128.31 0.54,-126.05 257.54 80
3 03/29/2022 18:11:31 -0.05,-128.37 0.43,-130.62 255.94 80
4 03/30/2022 17:53:32 -0.04,-128.39 -0.66,-125.62 315.60 80
5 04/01/2022 06:09:52 0.05,-128.40 -0.38,-130.22 207.97 80
6 04/02/2022 05:51:53 0.05,-128.42 0.77,-125.23 363.43 80
7 04/03/2022 18:08:06 -0.06,-128.48 0.26,-129.79 150.52 80
8 04/04/2022 17:50:07 -0.05,-128.49 -0.89,-124.81 420.48 80
9 04/06/2022 06:06:28 0.07,-128.49 -0.14,-129.40 104.18 80
10 04/07/2022 05:48:29 0.06,-128.50 1.01,-124.41 466.37 80
11 04/08/2022 18:04:41 -0.08,-128.55 0.02,-128.97 48.83 80
